Location: PSU-Greenbush Astrophysical Observatory
(37.5140°N, 94.9880°W)
Time: 01:10:31
(UTC-06:00)

Explorer 11/Cluster Stage 4 - All Passes

Search period start: 20 January 2020 00:00
Search period end: 30 January 2020 00:00
Orbit: 467 x 1259 km, 28.8° (Epoch: 19 January)

Date Brightness Start Highest point End Pass type
(mag) Time Alt. Az. Time Alt. Az. Time Alt. Az.
20 Jan - 15:22:15 10° SSW 15:28:02 24° SSE 15:33:09 10° ESE daylight
20 Jan - 17:10:11 10° WSW 17:16:29 35° S 17:21:42 10° ESE daylight
20 Jan - 18:59:18 10° WSW 19:04:44 32° S 19:09:12 10° SE visible
20 Jan - 20:49:25 10° WSW 20:52:27 16° SSW 20:55:11 10° SSE visible
21 Jan - 13:25:59 10° S 13:28:43 12° SSE 13:31:23 10° SE daylight
21 Jan - 15:10:51 10° SW 15:17:08 27° SSE 15:22:42 10° ESE daylight
21 Jan - 16:59:03 10° WSW 17:05:40 37° S 17:11:09 10° ESE daylight
21 Jan - 18:48:19 10° WSW 18:53:57 32° SSW 18:58:36 10° SE visible
21 Jan - 20:38:43 10° WSW 20:41:40 15° SSW 20:44:19 10° S visible
22 Jan - 13:13:45 10° S 13:17:46 14° SSE 13:21:38 10° ESE daylight
22 Jan - 14:59:32 10° SW 15:06:13 30° SSE 15:12:11 10° ESE daylight
22 Jan - 16:47:57 10° WSW 16:54:49 39° S 17:00:34 10° ESE daylight
22 Jan - 18:37:20 10° WSW 18:43:09 32° SSW 18:47:58 10° SE visible
22 Jan - 20:28:05 10° WSW 20:30:50 14° SSW 20:33:22 10° S visible
23 Jan - 13:01:56 10° S 13:06:47 17° SSE 13:11:29 10° ESE daylight
23 Jan - 14:48:17 10° SW 14:55:18 33° SSE 15:01:35 10° ESE daylight
23 Jan - 16:36:51 10° WSW 16:43:57 41° S 16:49:57 10° ESE daylight
23 Jan - 18:26:21 10° WSW 18:32:20 31° SSW 18:37:18 10° SE visible
23 Jan - 20:17:31 10° SW 20:20:00 13° SSW 20:22:18 10° S visible
24 Jan - 12:50:20 10° SSW 12:55:47 19° SSE 13:01:07 10° ESE daylight
24 Jan - 14:37:05 10° SW 14:44:21 35° SSE 14:50:57 10° ESE daylight
24 Jan - 16:25:47 10° WSW 16:33:05 42° S 16:39:17 10° ESE daylight
24 Jan - 18:15:22 10° WSW 18:21:28 30° SSW 18:26:35 10° SE visible
24 Jan - 20:07:04 10° SW 20:09:08 12° SSW 20:11:04 10° SSW visible
25 Jan - 12:38:53 10° SSW 12:44:47 22° SSE 12:50:36 10° ESE daylight
25 Jan - 14:25:57 10° SW 14:33:23 38° S 14:40:16 10° ESE daylight
25 Jan - 16:14:44 10° WSW 16:22:10 43° S 16:28:36 10° ESE daylight
25 Jan - 18:04:24 10° WSW 18:10:35 29° SSW 18:15:50 10° SE visible
25 Jan - 19:56:55 10° SW 19:58:14 11° SSW 19:59:32 10° SSW visible
26 Jan - 12:27:34 10° SSW 12:33:46 24° SSE 12:40:00 10° ESE daylight
26 Jan - 14:14:51 10° SW 14:22:25 40° S 14:29:31 10° ESE daylight
26 Jan - 16:03:43 10° WSW 16:11:14 43° S 16:17:52 10° ESE daylight
26 Jan - 17:53:28 10° WSW 17:59:40 28° SSW 18:05:01 10° SE visible
27 Jan - 12:16:20 10° SSW 12:22:45 27° SSE 12:29:18 10° ESE daylight
27 Jan - 14:03:48 10° WSW 14:11:26 42° S 14:18:44 10° ESE daylight
27 Jan - 15:52:42 10° WSW 16:00:18 43° S 16:07:05 10° ESE daylight
27 Jan - 17:42:33 10° WSW 17:48:43 27° SSW 17:54:09 10° SSE daylight
28 Jan - 10:21:29 10° SSE 10:23:37 11° SE 10:25:48 10° SE daylight
28 Jan - 12:05:11 10° SW 12:11:44 29° SSE 12:18:32 10° ESE daylight
28 Jan - 13:52:48 10° WSW 14:00:28 44° S 14:07:55 10° ESE daylight
28 Jan - 15:41:43 10° WSW 15:49:20 42° S 15:56:17 10° ESE daylight
28 Jan - 17:31:40 10° WSW 17:37:46 25° SSW 17:43:12 10° SSE daylight
29 Jan - 10:09:31 10° S 10:12:37 13° SSE 10:15:50 10° ESE daylight
29 Jan - 11:54:07 10° SW 12:00:43 31° SSE 12:07:43 10° ESE daylight
29 Jan - 13:41:51 10° WSW 13:49:28 45° S 13:57:04 10° ESE daylight
29 Jan - 15:30:46 10° WSW 15:38:21 41° S 15:45:25 10° SE daylight
29 Jan - 17:20:49 10° WSW 17:26:47 23° SSW 17:32:12 10° SSE daylight
